Location: Santa Teresa Spring
(37.2333°N, 121.7000°W)
Time: 23:43:44
(UTC-08:00)

ISS - Visible Passes

Search period start: 24 February 2018 00:00
Search period end: 06 March 2018 00:00
Orbit: 402 x 407 km, 51.6° (Epoch: 25 February)

Date Brightness Start Highest point End Pass type
(mag) Time Alt. Az. Time Alt. Az. Time Alt. Az.
25 Feb -2.2 05:54:48 10° SSW 05:57:50 35° SE 06:00:52 10° ENE visible
26 Feb -1.1 05:03:28 10° S 05:05:44 18° SE 05:08:01 10° E visible
27 Feb -3.9 05:46:46 12° SW 05:49:41 80° NW 05:52:58 10° NE visible
28 Feb -3.1 04:57:13 45° SSE 04:57:27 46° SE 05:00:37 10° ENE visible
01 Mar -0.4 04:07:28 13° E 04:07:28 13° E 04:07:56 10° ENE visible
01 Mar -2.9 05:40:08 21° W 05:41:39 32° NNW 05:44:39 10° NNE visible
02 Mar -2.8 04:50:14 40° NNE 04:50:14 40° NNE 04:52:32 10° NE visible
03 Mar -0.2 04:00:11 10° NE 04:00:11 10° NE 04:00:14 10° NE visible
03 Mar -1.9 05:32:51 16° NW 05:33:43 17° NNW 05:36:01 10° NNE visible
04 Mar -1.6 04:42:42 19° N 04:42:42 19° N 04:44:04 10° NNE visible
05 Mar -1.3 05:25:08 10° NNW 05:25:53 11° NNW 05:26:48 10° N visible
